METEOR 2-5 DEB

Satellite information

Favourite Embed

Satellite Type and Status

DEBRISIN ORBIT

Key statistics

Satellite METEOR 2-5 DEB at a glance.

Uptime

16845

Days in orbit

Revolutions

≈ 14.4

Per day

Orbit

LEO

Low Earth Orbit

Inclination

81.2

Latest

Satellite identification and parameters

Extended collection of information and parameters for METEOR 2-5 DEB.

Object identification

Identified? True

Debris? True

Object name: METEOR 2-5 DEB

International designator: 1979-095BS

Object number (NORAD): 38272

Object ID (CCSDS): 38272

Country: COMMONWEALTH OF INDEPENDENT STATES (CIS)

Current information (Y/N): Y

RCS size: SMALL

Orbital parameters

Period: 100.066 minutes

Inclination: 81.199 deg

SMA: 7139.773 km

Apoapsis: 781.099 km

Periapsis: 742.176 km

RAAN: 327.3919 deg

Eccentricy: 0.00272583

Argument of periapsis: 213.5852 deg

Mean anomaly: 321.199 deg

Mean motion: 14.39051043 rev/day

Mean motion (dot): 0.0001149 rev/day2

B* drag term: 0.0036961509 1/REarth

Two-line elements (TLE)

Creation date: Dec. 12, 2025, 3:16 a.m.

Reference frame: TEME

Reference center: EARTH

Epoch: Dec. 11, 2025, 4:55 p.m. UTC

TLE line 0: 0 METEOR 2-5 DEB

TLE line 1: 1 38272U 79095BS 25345.70549981 .00011490 00000-0 36962-2 0 9997

TLE line 2: 2 38272 81.1990 327.3919 0027258 213.5852 321.1990 14.39051043633935

Live tracking on map

Real-time ground track for satellite METEOR 2-5 DEB.

In-orbit conjunctions

A list of the most updated potential collisions computed for object METEOR 2-5 DEB.

Target Orbit TCA Probability of collision Miss distance Type
PICOSAT 1&2 (TETHERED) SSO 2025-09-23 12:25:24 0.000150962 669.0 (m) PAYLOAD
RADARSAT SSO 2025-02-12 21:47:05 0.0003080291 421.0 (m) PAYLOAD
NOAA 16 DEB SSO 2024-11-11 03:50:50 0.0002203329 307.0 (m) DEBRIS

Associated space launch

Second generation soviet meteorological satellite

METEOR 2-5 DEB was lifted into orbit during the mission ‘Vostok 8A92M | Meteor-2 5’, on board a Vostok 8A92M space rocket.

The launch took place on Oct. 31, 1979, 9:25 a.m. from 43/4 (43R).

For more information about the launch, click the button.

Launch to space Vostok 8A92M | Meteor-2 5
Vostok 8A92M | Meteor-2 5

Agency: N/A

Status: Launch Successful

Launch date: Oct. 31, 1979, 9:25 a.m. UTC

Rocket: Vostok 8A92M

Launch pad: 43/4 (43R)

Location: Plesetsk Cosmodrome, Russian Federation

...

Latest news about this satellite

There are no fresh news available about this satellite. Check back as we update our databases every day.


Newsletter sign-up

Weekly statistics, charts and insights to help you stay on top of the space industry.